Regional Weather Roundup
Issued by NWS

Home | Current Version | Previous Version | Graphics & Text | Print | Product List | Glossary On
Versions: 1 2 3 4 5 6 7 8 9 10 11 12 13 14 15 16 17 18 19 20 21 22 23 24 25 26 27 28 29 30 31 32 33 34 35 36 37 38 39 40 41 42 43 44 45 46 47 48 49 50
000
ASUS45 KSLC 220910
RWRUT

UTAH REGIONAL WEATHER ROUNDUP
NATIONAL WEATHER SERVICE SALT LAKE CITY UT
300 AM MDT TUE AUG 22 2017

UTZ001>011-023>025-221000-

NORTHERN UTAH

CITY           SKY/WX    TMP DP  RH WIND       PRES   REMARKS
BRIGHAM CITY   CLEAR     63  38  40 CALM      30.17R
HILL AFB       CLEAR     69  40  33 E14       30.19S
LOGAN          CLEAR     55  44  66 N3        30.19S
OGDEN          CLEAR     68  42  38 S7        30.16R
SALT LAKE CITY PTCLDY    72  44  36 SE3       30.15R
TOOELE VALLEY  PTCLDY    72  43  35 S3        30.16R
WENDOVER       PTCLDY    69  35  28 W7        30.15S
HEBER CITY     PTCLDY    52  43  71 CALM      30.27S
WEST JORDAN    CLEAR     72  55  55 S10       30.18S

$$

UTZ011>015-024>027-221000-

CENTRAL/NORTHEAST UTAH

CITY           SKY/WX    TMP DP  RH WIND       PRES   REMARKS
PROVO AIRPORT  NOT AVBL
MOAB/CANYONLAN PTCLDY    73  39  29 E3        30.14R
DELTA          PTCLDY    64  45  48 NE7       30.18S
PRICE          PTCLDY    66  38  35 CALM      30.24S
RICHFIELD      CLEAR     57  54  88 CALM      30.27S
ROOSEVELT      CLEAR     61  43  51 W3        30.22S
VERNAL         CLEAR     62  41  46 CALM      30.21R

$$

UTZ013>016-019>022-027-221000-

SOUTHERN UTAH

CITY           SKY/WX    TMP DP  RH WIND       PRES   REMARKS
BRYCE CANYON   CLOUDY    53  50  89 N5        30.42S
CEDAR CITY     MOCLDY    56  49  77 CALM      30.25S
MILFORD        MOCLDY    66  50  56 S9        30.21R
ST GEORGE      MOSUNNY   75  52  43 SE5       30.09R
HANKSVILLE     PTCLDY    72  39  30 S5        30.19R
KANAB          MOCLDY    66  52  59 NE12      30.26S
BLANDING       MOCLDY    63  47  55 N7        30.36F

$$

REGIONAL REPORTS     COLORADO/ARIZONA

CITY           SKY/WX    TMP DP  RH WIND       PRES   REMARKS
CRAIG, CO      CLEAR     47  34  60 SW7       30.31R
GRAND JUNCTION PTCLDY    73  45  36 E14       30.20R
RIFLE, CO      PTCLDY    60  41  49 E5        30.27R
MONTROSE, CO   CLOUDY    60  44  55 VRB5      30.31R
CORTEZ, CO     CLOUDY    60  53  77 NE3       30.31R
COLORADO CITY  PTSUNNY   68  52  56 CALM      30.24S
PAGE, AZ       MOCLDY    76  47  35 SW8       30.16S
GRAND CANYON   CLOUDY    58  56  93 CALM      30.35S
KINGMAN, AZ    CLEAR     59  57  93 SE5       30.12F
FLAGSTAFF, AZ  PTCLDY    51  48  89 NE3       30.37R

$$

REGIONAL REPORTS    NEVADA/IDAHO/WYOMING

CITY           SKY/WX    TMP DP  RH WIND       PRES   REMARKS
LAS VEGAS, NV  CLEAR     81  53  37 CALM      30.03S
ELY, NY        MOCLDY    65  42  43 SW8       30.30S
ELKO, NV       PTCLDY    73  30  20 NE3       30.18F
POCATELLO, ID  CLEAR     53  35  50 E8        30.20S
BURLEY, ID     CLEAR     50  39  66 CALM      30.15F
FORT BRIDGER,    N/A     63  31  30 SW8       30.38S
EVANSTON, WY   CLOUDY    59  36  42 SE6       30.36S
ROCK SPRINGS,  CLOUDY    59  34  39 E5        30.34R
KEMMERER, WY     N/A     52  30  43 NW9       30.38S

$$



USA.gov is the U.S. government's official web portal to all federal, state and local government web resources and services.